RH
24 25 24 26 28 28 34 66 89 90 90 97 95 82 74 71 49 49 47 42 39 39 39 36 32 32 31 32 28 34 37 43 40 40 38 38 35 36 44 47 46 49 48
24 26 27 26 28 33 50 89 90 90 87 91 93 89 76 61 51 53 49 46 42 43 38 38 38 37 38 35 37 42 42 46 47 47 43 46 35 30 30 38 36 39 39
28 28 28 28 32 37 72 93 90 87 83 84 94 90 80 58 58 56 56 48 42 42 44 43 41 43 45 50 51 50 45 53 51 47 54 46 42 37 34 36 31 32 35
34 28 29 29 34 38 76 88 89 88 87 87 87 88 80 71 60 58 55 50 44 46 48 50 48 52 52 53 52 48 55 54 56 55 42 48 48 47 44 37 36 34 28
34 37 29 31 32 47 82 91 89 90 90 92 87 93 95 67 57 57 56 52 49 51 51 52 54 55 56 58 59 60 59 59 60 59 57 51 48 45 48 43 42 36 33
42 38 28 29 32 64 90 93 92 91 91 92 91 88 88 73 63 60 58 54 54 56 56 55 57 56 58 61 64 65 64 62 60 62 59 56 54 50 52 50 45 46 42
47 42 30 29 36 85 96 95 95 96 95 93 91 89 73 64 61 58 57 58 59 61 61 60 61 60 63 64 64 66 64 63 63 62 57 54 56 54 52 53 50 48 37
50 43 32 33 52 89 96 94 94 97 95 92 88 86 78 64 59 56 57 59 60 62 62 63 62 62 63 64 64 67 67 67 70 67 61 59 56 56 55 54 58 52 44
50 41 32 36 77 88 94 94 94 94 94 88 83 70 63 60 58 58 56 59 62 62 63 64 64 63 62 61 61 62 59 60 64 64 59 50 50 53 51 52 51 55 56
56 39 33 51 74 87 91 93 92 93 92 88 76 67 54 53 54 55 60 62 62 63 64 64 63 62 60 56 54 58 49 52 54 51 43 44 44 46 53 57 51 51 53
50 40 51 70 79 91 94 96 95 92 93 88 83 68 56 54 51 52 54 56 57 57 58 57 54 48 46 41 40 41 40 40 44 46 50 46 46 50 52 57 55 57 57
64 82 84 89 93 96 98 97 94 89 84 87 85 82 59 54 56 55 56 54 56 53 49 43 37 29 29 28 27 31 31 33 37 39 49 44 32 44 46 51 52 55 55
86 90 90 92 96 95 95 96 94 95 86 84 85 87 81 66 63 61 57 52 48 44 34 31 29 30 32 30 29 30 31 32 34 38 35 38 41 43 47 48 51 54 46
84 91 94 92 92 93 93 91 96 93 86 82 84 87 83 75 62 58 51 43 36 31 30 30 32 35 36 36 34 32 32 34 37 37 41 40 45 50 52 51 52 50 60
89 88 90 92 92 93 95 91 92 96 92 82 90 80 63 58 50 44 38 33 31 31 30 32 39 42 42 39 42 39 36 37 38 39 38 46 61 65 60 60 63 64 68
93 93 88 93 96 95 94 92 90 94 88 85 79 69 54 48 42 37 34 34 34 32 32 34 41 44 46 66 61 45 39 39 39 44 44 48 62 57 58 57 64 68 73
92 90 94 93 93 94 88 90 93 87 83 73 65 54 46 42 38 35 36 37 36 34 34 34 38 45 55 64 64 59 40 44 48 57 57 51 43 61 52 57 58 54 54
97 93 97 97 96 94 94 91 85 85 79 64 54 47 43 38 36 35 36 36 34 34 32 32 37 48 56 63 63 61 46 47 50 56 53 54 53 56 58 60 59 56 56
95 97 95 97 95 94 93 92 92 89 78 63 52 44 40 39 40 40 38 35 35 34 34 34 34 39 50 63 65 61 50 53 51 47 49 52 54 55 63 63 66 59 56
88 96 97 95 95 94 89 90 89 87 85 72 54 43 42 41 42 42 39 39 37 38 40 39 40 49 42 65 66 63 49 55 50 50 47 55 51 57 64 63 66 70 63
94 92 92 94 95 91 88 91 88 84 68 48 44 43 40 42 39 41 38 37 41 39 37 41 39 38 45 52 64 65 56 54 56 52 50 47 55 64 67 67 65 66 65
80 83 88 91 93 89 84 80 68 54 45 44 42 40 36 33 34 35 33 33 32 33 32 33 38 40 41 62 55 66 66 66 62 58 53 54 63 68 67 65 64 66 62
80 80 73 78 78 77 61 56 48 40 36 35 35 33 32 30 30 29 30 33 31 38 36 44 43 44 47 51 61 65 68 69 63 54 58 64 63 64 62 60 61 60 60
61 61 61 59 56 49 46 42 37 31 29 30 31 30 30 28 26 32 36 37 38 40 42 50 52 48 55 59 62 61 60 57 57 60 66 63 61 58 58 58 60 61 65
57 55 54 53 48 43 39 34 30 27 28 28 29 29 31 28 30 34 36 40 36 42 45 56 56 60 60 58 67 71 64 65 61 69 72 69 65 66 63 65 65 67 68
53 53 52 48 44 40 38 32 27 26 28 29 33 37 35 33 38 41 45 64 63 64 65 64 62 53 58 64 71 71 69 67 66 74 74 67 64 66 66 68 69 71 75
Wind_Speed
17 20 20 17 16 15 15 15 15 14 12 10 10 5 7 9 7 7 10 9 7 7 7 6 6 4 4 5 5 4 5 4 1 2 3 3 2 1 1 0 0 3 0
15 17 18 18 17 15 13 16 15 16 13 9 8 5 4 7 8 8 8 8 9 7 7 7 6 6 5 5 4 3 3 3 3 2 1 4 3 3 1 1 2 3 2
15 16 19 18 16 16 12 14 16 17 15 15 10 5 3 5 7 9 8 7 9 7 7 7 6 5 4 4 4 3 2 4 3 5 3 1 1 2 2 2 2 0 2
19 15 18 18 16 16 13 15 16 17 14 15 12 17 5 4 6 9 8 8 9 9 8 7 7 6 5 5 4 4 3 2 4 2 3 5 4 3 3 3 2 1 2
20 20 17 17 14 13 12 13 17 17 15 13 12 11 11 5 6 8 12 10 9 9 8 8 7 6 5 5 5 5 5 4 4 4 0 4 3 4 3 2 3 3 3
24 20 16 16 13 11 12 13 16 16 16 14 16 12 11 10 8 10 9 8 7 7 8 8 7 6 7 6 5 5 6 6 5 3 4 5 4 4 3 2 4 4 3
19 17 15 15 14 14 13 13 15 15 15 15 14 10 12 13 11 11 9 11 8 7 8 9 7 6 7 6 6 6 5 5 5 4 5 4 4 4 3 2 3 3 4
18 15 12 14 14 17 14 15 16 15 15 14 12 14 7 7 8 8 9 8 7 8 10 9 8 8 7 6 7 6 5 5 5 5 7 3 4 4 3 3 3 4 3
16 11 10 13 14 14 15 16 16 16 16 13 10 15 12 12 9 11 10 7 10 9 10 10 9 9 7 7 7 5 6 7 4 5 6 4 4 3 3 3 2 2 3
14 7 11 13 10 12 13 15 18 19 16 11 11 12 10 12 11 10 11 11 11 11 12 11 9 8 8 6 8 5 6 6 5 3 6 3 3 2 1 2 3 3 4
5 6 8 10 10 11 13 13 15 18 15 10 9 12 11 11 12 11 12 11 13 12 12 11 11 9 8 6 8 7 6 7 6 6 3 4 3 2 2 2 3 3 4
4 10 10 10 11 12 11 12 15 16 13 12 11 11 10 11 11 11 13 12 12 12 11 12 10 9 8 7 8 7 6 6 7 3 3 4 2 3 3 2 4 4 5
9 8 9 10 11 13 14 13 15 13 9 11 12 15 7 10 10 13 11 11 12 12 11 11 9 9 8 8 7 6 6 7 5 4 4 3 3 4 4 5 5 4 5
6 6 8 9 11 12 15 16 17 12 8 12 11 14 10 9 10 11 13 11 11 12 12 10 9 8 8 7 6 6 5 7 4 4 3 4 5 5 6 6 6 6 6
5 5 7 8 10 12 14 15 18 13 9 12 11 11 14 11 11 12 13 11 12 11 11 10 8 8 7 6 6 6 6 4 3 3 3 2 3 4 6 5 6 7 6
4 6 8 10 10 11 14 17 17 18 13 11 12 11 12 12 11 12 13 11 12 11 10 9 8 10 6 10 10 6 4 3 3 3 4 4 3 5 8 8 10 10 8
6 6 8 10 10 10 14 16 16 14 15 13 13 12 11 12 12 13 12 11 12 10 9 8 8 9 8 10 8 6 3 2 3 3 4 4 4 4 6 10 14 12 12
3 5 6 9 11 12 14 15 15 15 13 14 12 11 11 13 12 12 12 11 10 10 8 7 7 8 6 7 6 4 2 3 3 2 4 5 6 6 8 9 9 9 10
7 8 9 11 14 13 13 13 13 13 13 12 12 11 11 12 11 12 11 9 9 9 8 7 7 7 6 5 5 6 3 3 4 3 4 4 6 8 13 9 10 11 10
6 8 10 13 15 10 12 13 12 13 12 10 10 10 11 11 11 11 10 8 7 8 6 6 6 4 4 5 5 6 4 3 4 5 5 5 5 10 14 11 10 11 10
8 8 9 11 11 11 13 12 11 11 11 11 11 11 10 11 10 10 8 9 7 6 6 6 4 4 4 4 3 4 5 4 5 5 5 5 10 13 16 17 9 10 12
9 9 11 10 9 10 13 12 12 12 12 12 11 11 10 8 8 10 8 8 7 6 5 4 4 2 1 2 2 5 4 7 6 7 6 6 15 16 17 14 14 16 15
10 9 11 12 9 9 11 14 13 13 13 13 11 10 9 8 8 9 8 5 5 4 4 3 1 1 1 1 2 4 6 8 6 6 9 16 14 14 10 12 13 14 5
9 10 11 12 12 11 11 13 13 13 14 13 11 10 9 9 8 5 4 4 4 3 3 2 1 0 0 1 1 3 5 7 6 7 7 12 12 11 10 8 6 4 4
7 9 10 10 11 12 12 12 12 13 12 11 9 9 7 7 7 6 4 4 5 4 2 2 2 2 2 1 4 7 5 5 7 9 6 6 4 4 4 4 5 4 5
7 7 8 9 11 11 12 12 11 12 12 11 8 7 6 5 5 5 5 7 7 5 3 2 2 2 5 8 8 9 11 12 10 6 6 5 4 5 5 6 7 7 7
Wind_Direction
268 257 253 246 249 248 235 170 156 162 156 156 146 226 163 167 154 138 142 140 135 127 122 120 124 120 121 113 118 114 126 74 6 147 114 114 141 194 136 136 196 135 360
286 260 245 242 240 239 235 164 154 166 165 162 127 215 190 160 142 131 130 136 130 127 123 120 113 111 116 118 121 128 108 94 13 325 239 156 146 139 103 70 45 69 104
289 271 247 235 231 233 176 163 161 175 165 163 146 141 156 171 134 135 129 139 129 116 110 114 116 112 103 100 97 111 118 115 55 38 320 198 89 143 157 144 133 289 296
313 270 246 235 219 228 165 164 168 173 171 164 163 129 151 161 161 131 134 129 125 118 111 110 110 105 104 107 104 77 78 101 102 114 39 58 18 343 154 156 193 230 334
314 295 243 227 221 210 160 174 167 169 164 163 148 141 134 203 151 129 132 126 123 120 118 116 116 114 103 100 105 95 74 53 62 51 303 69 61 37 358 20 33 338 29
301 286 248 212 215 162 151 165 168 170 157 151 142 150 149 149 157 144 133 131 130 126 123 122 116 112 112 107 96 84 79 79 78 57 48 37 18 37 10 344 357 333 335
296 280 227 205 202 147 151 158 162 166 159 150 160 125 138 166 160 148 139 138 140 133 136 125 126 113 110 111 107 98 82 63 71 30 66 56 51 20 26 338 336 311 309
297 281 214 197 172 148 153 159 157 152 154 152 150 130 150 139 149 144 136 138 137 131 134 123 114 115 114 113 106 97 90 87 74 65 52 56 53 27 19 10 341 317 297
311 272 200 195 151 148 160 154 152 149 140 136 137 124 158 138 147 143 137 136 125 129 125 119 118 116 117 119 106 107 106 85 74 68 71 46 59 33 18 348 323 317 309
301 244 195 156 155 149 153 151 154 147 139 131 128 127 138 140 143 135 125 131 127 126 123 116 114 120 107 108 107 84 88 104 75 63 67 47 42 23 352 333 313 303 286
302 209 151 122 142 139 141 145 149 140 128 122 126 113 129 139 138 136 131 133 127 127 121 119 116 126 115 109 94 103 94 90 91 66 58 67 33 6 320 322 296 290 288
14 83 95 122 124 123 112 130 132 122 129 138 114 104 117 126 123 129 122 128 120 116 121 114 111 115 101 104 96 104 85 84 72 89 69 62 15 319 315 322 301 289 296
62 92 115 125 127 120 111 114 110 105 141 122 115 109 113 116 127 126 117 116 115 115 109 112 117 101 103 105 97 96 93 87 86 60 45 34 4 340 337 321 312 314 320
97 102 114 128 125 127 125 120 104 106 117 117 117 107 129 125 133 124 114 116 117 115 104 101 101 109 102 98 96 93 90 84 86 73 47 22 7 348 336 325 327 329 316
115 132 134 130 128 132 127 127 121 108 124 118 115 127 132 130 125 116 110 122 108 101 106 109 113 105 91 84 99 86 77 70 56 66 35 17 21 293 322 324 329 323 321
127 138 127 126 134 136 132 132 134 131 132 121 110 111 128 135 120 112 107 103 109 104 107 121 110 91 93 86 65 57 74 63 38 9 351 359 253 354 323 325 300 283 289
156 140 144 135 133 134 137 125 119 124 111 118 125 140 129 122 119 111 116 114 107 110 106 105 102 107 93 84 79 37 68 10 36 357 329 331 350 336 338 321 314 308 308
55 115 107 114 113 110 104 110 113 107 117 124 118 123 127 118 118 121 115 112 113 111 111 111 104 93 87 80 67 17 12 350 348 335 336 335 335 338 341 321 311 322 302
63 69 81 100 102 106 105 105 108 111 106 113 122 126 128 118 119 109 107 110 110 113 105 110 110 109 104 74 44 356 348 334 319 342 327 336 309 321 328 316 308 299 299
93 101 108 105 100 105 110 107 109 110 117 126 125 120 115 116 114 113 117 109 103 106 109 101 91 60 117 77 32 358 328 329 336 336 319 286 287 324 322 312 313 313 314
95 94 95 102 107 113 110 104 111 114 121 119 112 113 116 111 112 110 115 112 110 124 117 120 123 118 42 97 30 357 338 351 333 314 312 316 334 325 316 319 311 311 322
107 103 98 97 105 115 116 122 116 125 122 116 115 117 114 116 117 117 118 120 130 128 122 129 126 102 116 141 47 353 335 323 307 308 312 326 320 313 315 317 314 320 317
115 111 113 114 122 135 132 123 131 128 125 116 115 115 122 122 123 122 125 127 126 112 97 78 91 132 96 16 177 296 293 287 283 294 301 303 308 312 317 313 307 306 311
119 127 129 127 130 129 121 122 131 131 125 124 127 126 128 127 120 107 113 113 100 97 110 112 231 53 302 335 333 298 307 300 298 317 320 309 306 302 295 301 319 318 317
124 137 134 128 126 120 124 129 133 131 130 127 130 127 124 126 127 111 87 75 57 46 120 100 28 334 300 358 317 297 302 310 308 321 307 297 302 304 300 315 318 313 311
139 127 125 125 124 127 131 135 139 140 136 132 133 131 128 124 110 109 112 59 75 65 38 334 298 324 286 288 293 294 296 300 306 309 297 293 300 300 317 318 314 312 317